Погода в Чехове

Россия / Брянская область     52°26′00″N   31°36′30″E
темп.,
°C
ветер,
м/с
пор.,
м/с
влажн.,
%
обл.,
%
осадки,
мм/ч
давл.,
гПа
погр.,
м
20 июня, вс
вс2000:00+19вюв39950 0.0 1021172
03:00+18в36960 0.0 1021121
06:00+18в38918 0.0 1020194
09:00+23вюв576795 0.0 1020576
12:00+25в5658100 0.0 1020878
15:00+27в5653100 0.0 10181113
18:00+25вюв4767100 0.0 1018501
21:00+21в3883100 0.0 1018220
21 июня, пн
пн2100:00+18вюв3109317 0.0 1018232
03:00+18в389373 0.0 1017168
06:00+17в3108965 0.0 1017254
09:00+23в476719 0.0 1016468
12:00+27в68545 0.0 1015895
15:00+29вюв6952100 0.0 10151213
18:00+27вюв5863100 0.0 1015779
21:00+23в41083100 0.0 1015260
22 июня, вт
вт2200:00+21вюв41185100 0.0 1015344
03:00+19вюв37950 0.0 1016157
06:00+19вюв37929 0.0 1016190
09:00+25вюв466314 0.0 1016447
12:00+29вюв464895 0.0 1015893
15:00+30юв584661 0.0 10151465
18:00+28юв69535 0.0 1016766
21:00+22вюв498362 0.0 1016192
23 июня, ср
ср2300:00+21вюв37929 0.0 1017133
03:00+20вюв36950 0.0 1017122
06:00+20в379310 0.0 1017159
09:00+26вюв48655 0.0 1017485
12:00+30вюв585390 0.0 1017856
15:00+31вюв68515 0.0 10161287
18:00+30вюв586072 0.0 1017807
21:00+24вюв4883100 0.0 1017187
24 июня, чт
чт2400:00+21вюв369586 0.0 1018112
03:00+21вюв239588 0.0 101847
06:00+21вюв259130 0.0 1018113
09:00+26вюв466619 0.0 1018505
12:00+30юв455196 0.0 10181050
15:00+32юв3544100 0.0 10171646
18:00+31юв365595 0.0 1017629
21:00+25ююв35815 0.0 101680